Volver al catálogo

STARLINK-2166

ActivoComunicacionesVLEO
NORAD 48558·PAYLOAD·🇺🇸 United States

Lanzado May 15, 2021 desde Cape Canaveral Space Force Station

Loading…

Próximos Pases (próximas 24 horas)

TLE

ActualizadoSource: CelesTrak SupGP

Época: Sep 14, 2026, 20:25 UTC

1 48558C 21041F   26257.85118056 -.00033918  00000+0 -10904-2 0  2572
2 48558  53.1577 326.5260 0001077  90.2648 132.6700 15.31728465    10

Sigue STARLINK-2166 en tiempo real con AllMySat

Download on the App Store